ASA67 PASI-PAJN

Flight info

Callsign ASA67
Flight time 0h 21m
Altitude 16000
Route HAWRD5 TNAKY
Aircraft B737/M-SDE2E3FGHIRWXY/LB1

Departure

Time 2026-05-05 03:54
Airport Sitka Rocky Gutierrez Airport (PASI)

Arrival

Time 2026-05-05 04:16
Airport Juneau International Airport (PAJN)
Time Latitude Longitude Altitude Speed Heading
2026-05-05 03:38 57.05235 -135.36602 34 ft 0 kts 76°
2026-05-05 03:46 57.05232 -135.36626 34 ft 4 kts 76°
2026-05-05 03:46 57.05225 -135.36674 34 ft 4 kts 76°
2026-05-05 03:46 57.05219 -135.36722 34 ft 4 kts 76°
2026-05-05 03:47 57.05217 -135.36734 34 ft 1 kts 76°
2026-05-05 03:49 57.05217 -135.36732 34 ft 1 kts 85°
2026-05-05 03:49 57.05187 -135.36716 33 ft 10 kts 169°
2026-05-05 03:50 57.05110 -135.36598 33 ft 16 kts 134°
2026-05-05 03:50 57.05029 -135.36449 34 ft 16 kts 136°
2026-05-05 03:50 57.04960 -135.36337 32 ft 8 kts 149°
2026-05-05 03:50 57.04907 -135.36313 34 ft 10 kts 179°
2026-05-05 03:51 57.04819 -135.36310 35 ft 14 kts 179°
2026-05-05 03:51 57.04742 -135.36221 37 ft 15 kts 131°
2026-05-05 03:51 57.04664 -135.36074 36 ft 16 kts 136°
2026-05-05 03:51 57.04576 -135.35919 35 ft 21 kts 136°
2026-05-05 03:52 57.04469 -135.35728 34 ft 22 kts 135°
2026-05-05 03:52 57.04357 -135.35523 35 ft 23 kts 135°
2026-05-05 03:52 57.04245 -135.35322 36 ft 22 kts 136°
2026-05-05 03:52 57.04137 -135.35124 33 ft 22 kts 124°
2026-05-05 03:53 57.04084 -135.35010 36 ft 1 kts 214°
2026-05-05 03:53 57.04088 -135.35037 33 ft 3 kts 298°
2026-05-05 03:53 57.04094 -135.35049 36 ft 0 kts 315°
2026-05-05 03:53 57.04191 -135.35226 34 ft 57 kts 315°
2026-05-05 03:54 57.04665 -135.36081 36 ft 131 kts 315°
2026-05-05 03:54 57.05446 -135.37487 237 ft 172 kts 316°
2026-05-05 03:54 57.06379 -135.39028 864 ft 191 kts 319°
2026-05-05 03:54 57.07333 -135.40858 1525 ft 205 kts 308°
2026-05-05 03:55 57.08218 -135.42950 2342 ft 214 kts 308°
2026-05-05 03:55 57.09226 -135.45257 2688 ft 250 kts 309°
2026-05-05 03:55 57.10343 -135.47791 3431 ft 264 kts 314°
2026-05-05 03:55 57.11747 -135.49982 4520 ft 266 kts 322°
2026-05-05 03:56 57.13199 -135.52097 5584 ft 269 kts 322°
2026-05-05 03:56 57.14862 -135.53745 6474 ft 276 kts 348°
2026-05-05 03:56 57.16764 -135.53657 7506 ft 278 kts 14°
2026-05-05 03:56 57.18622 -135.52665 8579 ft 279 kts 17°
2026-05-05 03:57 57.20498 -135.51593 9485 ft 285 kts 16°
2026-05-05 03:57 57.22419 -135.50531 10351 ft 293 kts 15°
2026-05-05 03:57 57.24460 -135.49435 10668 ft 320 kts 14°
2026-05-05 03:57 57.26691 -135.48254 10980 ft 344 kts 14°
2026-05-05 03:58 57.29032 -135.47015 11652 ft 355 kts 15°
2026-05-05 03:58 57.31438 -135.45762 12388 ft 363 kts 15°
2026-05-05 03:58 57.33894 -135.44491 13188 ft 369 kts 15°
2026-05-05 03:58 57.36379 -135.43183 14055 ft 374 kts 15°
2026-05-05 03:59 57.38900 -135.41840 14874 ft 380 kts 15°
2026-05-05 03:59 57.41467 -135.40475 15588 ft 386 kts 15°
2026-05-05 03:59 57.44056 -135.39102 15933 ft 390 kts 15°
2026-05-05 03:59 57.46695 -135.37703 15990 ft 398 kts 15°
2026-05-05 04:00 57.49347 -135.36293 16009 ft 395 kts 15°
2026-05-05 04:00 57.51982 -135.34889 15999 ft 393 kts 15°
2026-05-05 04:00 57.54594 -135.33495 15992 ft 386 kts 15°
2026-05-05 04:00 57.57156 -135.32125 15686 ft 384 kts 15°
2026-05-05 04:01 57.59714 -135.30757 15253 ft 381 kts 15°
2026-05-05 04:01 57.62226 -135.29410 14788 ft 372 kts 15°
2026-05-05 04:01 57.64704 -135.28080 14273 ft 369 kts 15°
2026-05-05 04:01 57.67156 -135.26762 13774 ft 365 kts 15°
2026-05-05 04:02 57.69579 -135.25459 13257 ft 361 kts 15°
2026-05-05 04:02 57.71983 -135.24163 12754 ft 358 kts 15°
2026-05-05 04:02 57.74366 -135.22877 12263 ft 355 kts 15°
2026-05-05 04:02 57.76729 -135.21601 11759 ft 352 kts 15°
2026-05-05 04:03 57.79039 -135.20350 11269 ft 349 kts 15°
2026-05-05 04:03 57.81392 -135.19076 10767 ft 346 kts 15°
2026-05-05 04:03 57.83693 -135.17828 10358 ft 341 kts 15°
2026-05-05 04:03 57.85915 -135.16620 10218 ft 326 kts 15°
2026-05-05 04:04 57.88026 -135.15471 10083 ft 314 kts 15°
2026-05-05 04:04 57.90080 -135.14351 9987 ft 300 kts 15°
2026-05-05 04:04 57.92045 -135.13280 9613 ft 295 kts 15°
2026-05-05 04:04 57.93994 -135.12216 9230 ft 287 kts 15°
2026-05-05 04:05 57.95886 -135.11182 8834 ft 279 kts 15°
2026-05-05 04:05 57.97728 -135.10174 8492 ft 273 kts 15°
2026-05-05 04:05 57.99550 -135.09178 8162 ft 272 kts 15°
2026-05-05 04:05 58.01362 -135.08185 7816 ft 271 kts 16°
2026-05-05 04:06 58.03168 -135.07194 7477 ft 270 kts 16°
2026-05-05 04:06 58.04965 -135.06208 7127 ft 268 kts 16°
2026-05-05 04:06 58.06736 -135.05236 6944 ft 263 kts 16°
2026-05-05 04:06 58.08501 -135.04273 6796 ft 265 kts 16°
2026-05-05 04:07 58.10283 -135.03302 6655 ft 268 kts 16°
2026-05-05 04:07 58.12083 -135.02320 6503 ft 270 kts 16°
2026-05-05 04:07 58.13888 -135.01333 6351 ft 270 kts 16°
2026-05-05 04:07 58.15693 -135.00345 6204 ft 270 kts 16°
2026-05-05 04:08 58.17497 -134.99357 6056 ft 269 kts 16°
2026-05-05 04:08 58.19300 -134.98360 5774 ft 271 kts 17°
2026-05-05 04:08 58.21091 -134.97357 5485 ft 264 kts 17°
2026-05-05 04:08 58.22796 -134.96398 5207 ft 247 kts 17°
2026-05-05 04:09 58.24382 -134.95506 4947 ft 229 kts 17°
2026-05-05 04:09 58.25368 -134.94951 4781 ft 218 kts 17°
2026-05-05 04:09 58.26773 -134.94160 4537 ft 203 kts 17°
2026-05-05 04:09 58.28079 -134.93423 4336 ft 188 kts 17°
2026-05-05 04:10 58.29291 -134.92741 4168 ft 176 kts 17°
2026-05-05 04:10 58.30443 -134.92093 4023 ft 172 kts 17°
2026-05-05 04:10 58.31592 -134.91443 3875 ft 172 kts 17°
2026-05-05 04:10 58.32727 -134.90802 3731 ft 168 kts 17°
2026-05-05 04:11 58.33848 -134.90169 3622 ft 168 kts 17°
2026-05-05 04:11 58.34953 -134.89543 3503 ft 159 kts 19°
2026-05-05 04:11 58.35759 -134.88407 3473 ft 141 kts 60°
2026-05-05 04:11 58.35986 -134.86580 3259 ft 142 kts 91°
2026-05-05 04:12 58.35979 -134.84711 3034 ft 139 kts 89°
2026-05-05 04:12 58.35975 -134.82892 2831 ft 137 kts 90°
2026-05-05 04:12 58.35986 -134.81065 2630 ft 139 kts 89°
2026-05-05 04:12 58.35989 -134.79225 2425 ft 140 kts 90°
2026-05-05 04:13 58.35978 -134.77401 2192 ft 136 kts 91°
2026-05-05 04:13 58.35963 -134.75584 1967 ft 136 kts 90°
2026-05-05 04:13 58.35952 -134.73779 1765 ft 137 kts 90°
2026-05-05 04:13 58.35940 -134.71957 1552 ft 138 kts 90°
2026-05-05 04:14 58.35930 -134.70164 1350 ft 136 kts 90°
2026-05-05 04:14 58.35917 -134.68350 1127 ft 133 kts 91°
2026-05-05 04:14 58.35905 -134.66573 904 ft 135 kts 91°
2026-05-05 04:14 58.35902 -134.64818 672 ft 135 kts 90°
2026-05-05 04:15 58.35918 -134.63027 468 ft 136 kts 85°
2026-05-05 04:15 58.35924 -134.61226 279 ft 135 kts 96°
2026-05-05 04:15 58.35754 -134.59506 54 ft 128 kts 104°
2026-05-05 04:15 58.35561 -134.58107 32 ft 82 kts 105°
2026-05-05 04:16 58.35471 -134.57460 34 ft 20 kts 105°
2026-05-05 04:16 58.35460 -134.57381 34 ft 9 kts 105°
2026-05-05 04:16 58.35476 -134.57272 35 ft 11 kts 17°
2026-05-05 04:16 58.35561 -134.57310 33 ft 14 kts 312°
2026-05-05 04:17 58.35587 -134.57480 33 ft 13 kts 284°
2026-05-05 04:17 58.35611 -134.57657 33 ft 15 kts 285°
2026-05-05 04:17 58.35641 -134.57872 33 ft 18 kts 285°
2026-05-05 04:17 58.35672 -134.58097 33 ft 17 kts 285°
2026-05-05 04:18 58.35700 -134.58279 33 ft 9 kts 298°
2026-05-05 04:18 58.35756 -134.58306 33 ft 9 kts 340°
2026-05-05 04:18 58.35781 -134.58406 33 ft 9 kts 285°
2026-05-05 04:18 58.35798 -134.58498 33 ft 5 kts 311°
2026-05-05 04:19 58.35829 -134.58468 33 ft 6 kts 50°
2026-05-05 04:19 58.35844 -134.58436 33 ft 2 kts 48°
2026-05-05 04:19 58.35847 -134.58429 33 ft 0 kts 48°